Hourly Data Report for October 15, 2014

All times are specified in Local Standard Time (LST). Add 1 hour to adjust for Daylight Saving Time where and when it is observed.

MONCTON INTL A
NEW BRUNSWICK

46°06'44.000" N
64°40'43.000" W
70.70 m
8103201
71705
YQM

Download Data

Hourly Data (October 2014)
Hourly Data Report for October 15, 2014
Temp Definition
°C
Dew Point Temp Definition
°C
Rel Hum Definition
%
Wind Dir Definition
10's deg

Wind Spd Definition
km/h
Visibility Definition
km
Stn Press Definition
kPa
Hmdx Definition


Wind Chill Definition


Weather Definition


TIME
00:00 Legend Double Dagger 17.0 14.9 87 23 29 24.1 100.90     LegendNANA
01:00 Legend Double Dagger 16.8 14.8 88 23 28 24.1 100.85     LegendNANA
02:00 Legend Double Dagger 17.3 14.6 84 22 27 24.1 100.79     Mostly Cloudy
03:00 Legend Double Dagger 16.3 14.0 86 23 19 24.1 100.75     LegendNANA
04:00 Legend Double Dagger 16.8 13.9 83 23 23 24.1 100.72     LegendNANA
05:00 Legend Double Dagger 15.7 13.6 87 23 26 24.1 100.69     Mainly Clear
06:00 Legend Double Dagger 16.3 13.8 85 24 34 24.1 100.72     LegendNANA
07:00 Legend Double Dagger 16.6 14.3 86 24 30 24.1 100.74     LegendNANA
08:00 Legend Double Dagger 17.2 14.9 86 23 39 24.1 100.75     Mostly Cloudy
09:00 Legend Double Dagger 18.1 15.2 83 24 36 24.1 100.78     LegendNANA
10:00 Legend Double Dagger 18.6 15.3 81 23 31 24.1 100.78     LegendNANA
11:00 Legend Double Dagger 19.0 15.5 80 23 27 24.1 100.78     Rain Showers
12:00 Legend Double Dagger 20.1 15.8 76 23 33 24.1 100.78 25   LegendNANA
13:00 Legend Double Dagger 21.1 16.2 73 23 24 24.1 100.80 26   LegendNANA
14:00 Legend Double Dagger 23.6 16.8 65 24 23 24.1 100.78 29   Mostly Cloudy
15:00 Legend Double Dagger 23.0 16.7 67 25 16 24.1 100.79 28   LegendNANA
16:00 Legend Double Dagger 22.1 16.7 71 23 17 24.1 100.83 27   LegendNANA
17:00 Legend Double Dagger 21.2 16.7 75 24 11 24.1 100.85 26   Mostly Cloudy
18:00 Legend Double Dagger 19.2 15.9 81 19 9 24.1 100.88     LegendNANA
19:00 Legend Double Dagger 16.5 14.2 86 3 10 24.1 100.98     LegendNANA
20:00 Legend Double Dagger 15.3 13.0 86 2 17 24.1 101.01     Mostly Cloudy
21:00 Legend Double Dagger 14.1 10.4 78 6 17 24.1 101.10     LegendNANA
22:00 Legend Double Dagger 13.8 8.9 72 6 13 24.1 101.11     LegendNANA
23:00 Legend Double Dagger 13.3 8.6 73 6 21 24.1 101.09     Cloudy

Notes on Data Quality.

Legend

  • E = Estimated
  • M = Missing
  • NA = Not Available
  • ‡ = Partner data that is not subject to review by the National Climate Archives
Date modified: